sat.trackr.live / text

‹ back to catalog

STARLINK-31003

NORAD 58520 · 2023-191N

PAYLOAD ACTIVE UNKNOWN

§ Identity

Operator
Country
US
Launch date
2023-12-07
Launch site
AFETR
Launch vehicle
Mass (kg)
RCS (m²)

Purposes: comms

External: N2YO · Heavens-Above · Gunter

§ Orbital elements

Epoch: 2026-09-20T22:01:08.970816Z

Period
94.27 min
Inclination
43.0032°
Eccentricity
0.0002081
Mean motion
15.27577867 rev/d
Perigee alt
481.6 km
Apogee alt
484.5 km
Semi-major
6,861.2 km
B*
1.8698e-5
RAAN
80.4885°
Arg perigee
284.4640°
Mean anomaly
75.5981°
Rev number
15,533

§ Raw data

STARLINK-310031 58520U 23191N   26263.91746494  .00000252  00000+0  18698-4 0  99932 58520  43.0032  80.4885 0002081 284.4640  75.5981 15.27577867155333

JSON: /api/v1/satellites/58520 · /tle

For live sub-satellite position, see the globe view (requires WebGL).

§ Visibility from observer

Set your observer location to see the next 7 days of passes ≥ 10°. The values pass through the URL so the page stays shareable.

No JS? Fill the form by hand. The geolocation button needs JavaScript.